Simultaneous Nadir Overpasses (SNOs) Predictions

Prediction of SNOs between AQUA and NOAA-19 Satellite Orbit:

Table of predicted SNOs for the next 14.0 days since TLE Epoch: 10/14/2016
Index Date (AQUA) Time (AQUA) Lat,Lon (AQUA) SZA (AQUA ) Date (NOAA-19) Time (NOAA-19) Lat,Lon (NOAA-19) SZA (NOAA-19 ) Distance(km) Time Diff (sec)
1 10/15/2016 21:56:19 80.92, 170.80 91.57 10/15/2016 21:56:36 80.93, 170.68 91.58 2.24 17
2 10/18/2016 02:40:36 80.93, 99.61 92.37 10/18/2016 02:39:35 80.93, 99.61 92.40 0.37 61
3 10/18/2016 03:30:02 -80.93, -92.72 87.63 10/18/2016 03:30:32 -80.93, -92.83 87.63 1.96 30
4 10/20/2016 08:14:19 -80.94,-163.97 86.82 10/20/2016 08:13:31 -80.94,-164.10 86.79 2.37 48
5 10/20/2016 09:03:45 80.92, 3.98 93.15 10/20/2016 09:04:33 80.92, 4.07 93.13 1.50 48
6 10/22/2016 13:48:02 80.94, -67.37 93.96 10/22/2016 13:47:33 80.94, -67.47 93.98 1.69 29
7 10/22/2016 14:37:28 -80.93, 100.34 86.04 10/22/2016 14:38:29 -80.93, 100.17 86.05 3.13 61
8 10/24/2016 19:21:44 -80.93, 29.27 85.29 10/24/2016 19:21:27 -80.94, 29.20 85.28 1.23 17




NCC Satellite Simultaneous Nadir Overpasses (SNOs) Prediction Service
